contact:dominique.lefevre@mio.osupytheas.fr, maurice.libes@osupytheas.fr, didier.mallarino@osupytheas.fr
Project:EMSO http://www.emso-fr.org/EMSO-France
Depth: 2436.0 m
Title:EMSO Ligure Ouest : Data MII capteur MICROCAT
DateTime_Computer,Latitude,Longitude,Temperature,Conductivity,Pressure,DateTime_Instrument
DateTime_Computer,Latitude,Longitude,degC,S m-1,dbar,DateTime_Instrument
2023-07-14T00:02:07Z,42.805,6.029,13.3028,4.60090,2470.661,2023-7-14T02:04:24Z
2023-07-14T00:05:10Z,42.805,6.029,13.3030,4.60090,2470.67,2023-7-14T02:07:27Z
2023-07-14T00:08:13Z,42.805,6.029,13.3027,4.60090,2470.67,2023-7-14T02:10:30Z
2023-07-14T00:11:16Z,42.805,6.029,13.3026,4.60090,2470.684,2023-7-14T02:13:33Z
2023-07-14T00:14:20Z,42.805,6.029,13.3031,4.60091,2470.67,2023-7-14T02:16:36Z
2023-07-14T00:17:23Z,42.805,6.029,13.3031,4.60092,2470.67,2023-7-14T02:19:39Z
2023-07-14T00:20:26Z,42.805,6.029,13.3029,4.60090,2470.67,2023-7-14T02:22:42Z
2023-07-14T00:23:29Z,42.805,6.029,13.3031,4.60090,2470.693,2023-7-14T02:25:45Z
2023-07-14T00:26:32Z,42.805,6.029,13.3029,4.60091,2470.693,2023-7-14T02:28:48Z
2023-07-14T00:29:35Z,42.805,6.029,13.3030,4.60090,2470.67,2023-7-14T02:31:52Z
2023-07-14T00:32:38Z,42.805,6.029,13.3030,4.60092,2470.67,2023-7-14T02:34:55Z
2023-07-14T00:35:41Z,42.805,6.029,13.3029,4.60092,2470.707,2023-7-14T02:37:58Z
2023-07-14T00:38:44Z,42.805,6.029,13.3033,4.60093,2470.633,2023-7-14T02:41:01Z
2023-07-14T00:41:47Z,42.805,6.029,13.3029,4.60092,2470.707,2023-7-14T02:44:04Z
2023-07-14T00:44:50Z,42.805,6.029,13.3031,4.60093,2470.684,2023-7-14T02:47:07Z
2023-07-14T00:47:53Z,42.805,6.029,13.3032,4.60092,2470.707,2023-7-14T02:50:10Z
2023-07-14T00:50:57Z,42.805,6.029,13.3029,4.60091,2470.684,2023-7-14T02:53:13Z
2023-07-14T00:54:00Z,42.805,6.029,13.3029,4.60092,2470.67,2023-7-14T02:56:16Z
2023-07-14T00:57:03Z,42.805,6.029,13.3029,4.60095,2470.67,2023-7-14T02:59:19Z
2023-07-14T01:00:06Z,42.805,6.029,13.3032,4.60092,2470.67,2023-7-14T03:02:22Z
2023-07-14T01:03:09Z,42.805,6.029,13.3034,4.60099,2470.684,2023-7-14T03:05:25Z
2023-07-14T01:06:12Z,42.805,6.029,13.3032,4.60093,2470.684,2023-7-14T03:08:28Z
2023-07-14T01:09:15Z,42.805,6.029,13.3029,4.60092,2470.693,2023-7-14T03:11:32Z
2023-07-14T01:12:18Z,42.805,6.029,13.3031,4.60102,2470.684,2023-7-14T03:14:35Z
2023-07-14T01:15:21Z,42.805,6.029,13.3036,4.60090,2470.693,2023-7-14T03:17:38Z
2023-07-14T01:18:24Z,42.805,6.029,13.3028,4.60091,2470.67,2023-7-14T03:20:41Z
2023-07-14T01:21:27Z,42.805,6.029,13.3031,4.60092,2470.717,2023-7-14T03:23:44Z
2023-07-14T01:24:30Z,42.805,6.029,13.3031,4.60099,2470.67,2023-7-14T03:26:47Z
2023-07-14T01:27:33Z,42.805,6.029,13.3032,4.60093,2470.707,2023-7-14T03:29:50Z
2023-07-14T01:30:37Z,42.805,6.029,13.3031,4.60089,2470.693,2023-7-14T03:32:53Z
2023-07-14T01:33:40Z,42.805,6.029,13.3028,4.60089,2470.693,2023-7-14T03:35:56Z
2023-07-14T01:36:43Z,42.805,6.029,13.3028,4.60092,2470.684,2023-7-14T03:38:59Z
2023-07-14T01:39:46Z,42.805,6.029,13.3029,4.60091,2470.693,2023-7-14T03:42:02Z
2023-07-14T01:42:49Z,42.805,6.029,13.3028,4.60090,2470.67,2023-7-14T03:45:05Z
2023-07-14T01:45:52Z,42.805,6.029,13.3029,4.60092,2470.707,2023-7-14T03:48:09Z
2023-07-14T01:48:55Z,42.805,6.029,13.3030,4.60090,2470.707,2023-7-14T03:51:12Z
2023-07-14T01:51:58Z,42.805,6.029,13.3029,4.60091,2470.67,2023-7-14T03:54:15Z
2023-07-14T01:55:01Z,42.805,6.029,13.3028,4.60091,2470.693,2023-7-14T03:57:18Z
2023-07-14T01:58:04Z,42.805,6.029,13.3024,4.60089,2470.73,2023-7-14T04:00:21Z
2023-07-14T02:01:07Z,42.805,6.029,13.3029,4.60092,2470.693,2023-7-14T04:03:24Z
2023-07-14T02:04:11Z,42.805,6.029,13.3029,4.60092,2470.744,2023-7-14T04:06:27Z
2023-07-14T02:07:14Z,42.805,6.029,13.3029,4.60090,2470.693,2023-7-14T04:09:30Z
2023-07-14T02:10:17Z,42.805,6.029,13.3033,4.60090,2470.717,2023-7-14T04:12:33Z
2023-07-14T02:13:20Z,42.805,6.029,13.3031,4.60091,2470.684,2023-7-14T04:15:36Z
2023-07-14T02:16:23Z,42.805,6.029,13.3028,4.60089,2470.693,2023-7-14T04:18:39Z
2023-07-14T02:19:26Z,42.805,6.029,13.3027,4.60089,2470.73,2023-7-14T04:21:42Z
2023-07-14T02:22:29Z,42.805,6.029,13.3030,4.60089,2470.74,2023-7-14T04:24:46Z
2023-07-14T02:25:32Z,42.805,6.029,13.3031,4.60090,2470.693,2023-7-14T04:27:49Z
2023-07-14T02:28:35Z,42.805,6.029,13.3026,4.60088,2470.693,2023-7-14T04:30:52Z
2023-07-14T02:31:38Z,42.805,6.029,13.3029,4.60088,2470.717,2023-7-14T04:33:55Z
2023-07-14T02:34:41Z,42.805,6.029,13.3025,4.60089,2470.717,2023-7-14T04:36:58Z
2023-07-14T02:37:44Z,42.805,6.029,13.3028,4.60090,2470.693,2023-7-14T04:40:01Z
2023-07-14T02:40:48Z,42.805,6.029,13.3026,4.60088,2470.693,2023-7-14T04:43:04Z
2023-07-14T02:43:51Z,42.805,6.029,13.3029,4.60089,2470.693,2023-7-14T04:46:07Z
2023-07-14T02:46:54Z,42.805,6.029,13.3031,4.60088,2470.73,2023-7-14T04:49:10Z
2023-07-14T02:49:57Z,42.805,6.029,13.3028,4.60092,2470.707,2023-7-14T04:52:13Z
2023-07-14T02:53:00Z,42.805,6.029,13.3032,4.60089,2470.707,2023-7-14T04:55:16Z
2023-07-14T02:56:03Z,42.805,6.029,13.3026,4.60089,2470.693,2023-7-14T04:58:20Z
2023-07-14T02:59:06Z,42.805,6.029,13.3026,4.60090,2470.73,2023-7-14T05:01:23Z
2023-07-14T03:02:09Z,42.805,6.029,13.3026,4.60089,2470.693,2023-7-14T05:04:26Z
2023-07-14T03:05:12Z,42.805,6.029,13.3029,4.60089,2470.717,2023-7-14T05:07:29Z
2023-07-14T03:08:15Z,42.805,6.029,13.3030,4.60091,2470.717,2023-7-14T05:10:32Z
2023-07-14T03:11:18Z,42.805,6.029,13.3025,4.60089,2470.717,2023-7-14T05:13:35Z
2023-07-14T03:14:21Z,42.805,6.029,13.3029,4.60088,2470.717,2023-7-14T05:16:38Z
2023-07-14T03:17:25Z,42.805,6.029,13.3028,4.60088,2470.707,2023-7-14T05:19:41Z
2023-07-14T03:20:28Z,42.805,6.029,13.3028,4.60089,2470.73,2023-7-14T05:22:44Z
2023-07-14T03:23:31Z,42.805,6.029,13.3029,4.60088,2470.754,2023-7-14T05:25:47Z
2023-07-14T03:26:34Z,42.805,6.029,13.3031,4.60089,2470.717,2023-7-14T05:28:50Z
2023-07-14T03:29:37Z,42.805,6.029,13.3028,4.60089,2470.717,2023-7-14T05:31:53Z
2023-07-14T03:32:40Z,42.805,6.029,13.3032,4.60088,2470.74,2023-7-14T05:34:57Z
2023-07-14T03:35:43Z,42.805,6.029,13.3031,4.60089,2470.754,2023-7-14T05:38:00Z
2023-07-14T03:38:46Z,42.805,6.029,13.3034,4.60093,2470.717,2023-7-14T05:41:03Z
2023-07-14T03:41:49Z,42.805,6.029,13.3027,4.60088,2470.73,2023-7-14T05:44:06Z
2023-07-14T03:44:52Z,42.805,6.029,13.3026,4.60087,2470.717,2023-7-14T05:47:09Z
2023-07-14T03:47:55Z,42.805,6.029,13.3031,4.60095,2470.74,2023-7-14T05:50:12Z
2023-07-14T03:50:58Z,42.805,6.029,13.3031,4.60087,2470.74,2023-7-14T05:53:15Z
2023-07-14T03:54:02Z,42.805,6.029,13.3028,4.60089,2470.73,2023-7-14T05:56:18Z
2023-07-14T03:57:05Z,42.805,6.029,13.3028,4.60089,2470.74,2023-7-14T05:59:21Z
2023-07-14T04:00:08Z,42.805,6.029,13.3027,4.60088,2470.74,2023-7-14T06:02:24Z
2023-07-14T04:03:11Z,42.805,6.029,13.3029,4.60089,2470.717,2023-7-14T06:05:27Z
2023-07-14T04:06:14Z,42.805,6.029,13.3029,4.60089,2470.717,2023-7-14T06:08:30Z
2023-07-14T04:09:17Z,42.805,6.029,13.3028,4.60090,2470.754,2023-7-14T06:11:33Z
2023-07-14T04:12:20Z,42.805,6.029,13.3028,4.60089,2470.717,2023-7-14T06:14:37Z
2023-07-14T04:15:23Z,42.805,6.029,13.3026,4.60089,2470.717,2023-7-14T06:17:40Z
2023-07-14T04:18:26Z,42.805,6.029,13.3028,4.60091,2470.717,2023-7-14T06:20:43Z
2023-07-14T04:21:29Z,42.805,6.029,13.3029,4.60089,2470.754,2023-7-14T06:23:46Z
2023-07-14T04:24:32Z,42.805,6.029,13.3029,4.60089,2470.74,2023-7-14T06:26:49Z
2023-07-14T04:27:35Z,42.805,6.029,13.3030,4.60091,2470.754,2023-7-14T06:29:52Z
2023-07-14T04:30:40Z,42.805,6.029,13.3025,4.60088,2470.726,2023-7-14T06:32:57Z
2023-07-14T04:33:43Z,42.805,6.029,13.3029,4.60088,2470.717,2023-7-14T06:36:00Z
2023-07-14T04:36:46Z,42.805,6.029,13.3031,4.60087,2470.74,2023-7-14T06:39:03Z
2023-07-14T04:39:49Z,42.805,6.029,13.3028,4.60088,2470.74,2023-7-14T06:42:06Z
2023-07-14T04:42:52Z,42.805,6.029,13.3031,4.60088,2470.74,2023-7-14T06:45:09Z
2023-07-14T04:45:55Z,42.805,6.029,13.3026,4.60088,2470.717,2023-7-14T06:48:12Z
2023-07-14T04:48:58Z,42.805,6.029,13.3028,4.60087,2470.74,2023-7-14T06:51:15Z
2023-07-14T04:52:02Z,42.805,6.029,13.3026,4.60088,2470.717,2023-7-14T06:54:18Z
2023-07-14T04:55:05Z,42.805,6.029,13.3029,4.60089,2470.717,2023-7-14T06:57:21Z
2023-07-14T04:58:08Z,42.805,6.029,13.3028,4.60090,2470.717,2023-7-14T07:00:24Z
2023-07-14T05:01:11Z,42.805,6.029,13.3025,4.60087,2470.73,2023-7-14T07:03:27Z
2023-07-14T05:04:14Z,42.805,6.029,13.3026,4.60089,2470.754,2023-7-14T07:06:30Z
2023-07-14T05:07:17Z,42.805,6.029,13.3031,4.60088,2470.74,2023-7-14T07:09:34Z
2023-07-14T05:10:20Z,42.805,6.029,13.3032,4.60087,2470.707,2023-7-14T07:12:37Z
2023-07-14T05:13:23Z,42.805,6.029,13.3026,4.60088,2470.74,2023-7-14T07:15:40Z
2023-07-14T05:16:26Z,42.805,6.029,13.3029,4.60088,2470.74,2023-7-14T07:18:43Z
2023-07-14T05:19:29Z,42.805,6.029,13.3023,4.60088,2470.717,2023-7-14T07:21:46Z
2023-07-14T05:22:32Z,42.805,6.029,13.3026,4.60089,2470.74,2023-7-14T07:24:49Z
2023-07-14T05:25:35Z,42.805,6.029,13.3031,4.60089,2470.717,2023-7-14T07:27:52Z
2023-07-14T05:28:39Z,42.805,6.029,13.3027,4.60089,2470.726,2023-7-14T07:30:55Z
2023-07-14T05:31:42Z,42.805,6.029,13.3031,4.60089,2470.717,2023-7-14T07:33:58Z
2023-07-14T05:34:45Z,42.805,6.029,13.3031,4.60088,2470.717,2023-7-14T07:37:01Z
2023-07-14T05:37:48Z,42.805,6.029,13.3028,4.60089,2470.73,2023-7-14T07:40:04Z
2023-07-14T05:40:51Z,42.805,6.029,13.3025,4.60090,2470.754,2023-7-14T07:43:07Z
2023-07-14T05:43:54Z,42.805,6.029,13.3027,4.60088,2470.717,2023-7-14T07:46:11Z
2023-07-14T05:46:57Z,42.805,6.029,13.3029,4.60095,2470.73,2023-7-14T07:49:14Z
2023-07-14T05:50:00Z,42.805,6.029,13.3029,4.60087,2470.693,2023-7-14T07:52:17Z
2023-07-14T05:53:03Z,42.805,6.029,13.3032,4.60087,2470.707,2023-7-14T07:55:20Z
2023-07-14T05:56:06Z,42.805,6.029,13.3031,4.60087,2470.707,2023-7-14T07:58:23Z
2023-07-14T05:59:09Z,42.805,6.029,13.3026,4.60087,2470.693,2023-7-14T08:01:26Z
2023-07-14T06:02:12Z,42.805,6.029,13.3026,4.60090,2470.717,2023-7-14T08:04:29Z
2023-07-14T06:05:16Z,42.805,6.029,13.3027,4.60088,2470.707,2023-7-14T08:07:32Z
2023-07-14T06:08:19Z,42.805,6.029,13.3029,4.60087,2470.693,2023-7-14T08:10:35Z
2023-07-14T06:11:22Z,42.805,6.029,13.3031,4.60087,2470.693,2023-7-14T08:13:38Z
2023-07-14T06:14:25Z,42.805,6.029,13.3027,4.60088,2470.73,2023-7-14T08:16:41Z
2023-07-14T06:17:28Z,42.805,6.029,13.3028,4.60092,2470.707,2023-7-14T08:19:44Z
2023-07-14T06:20:31Z,42.805,6.029,13.3031,4.60088,2470.67,2023-7-14T08:22:47Z
2023-07-14T06:23:34Z,42.805,6.029,13.3027,4.60089,2470.717,2023-7-14T08:25:51Z
2023-07-14T06:26:37Z,42.805,6.029,13.3026,4.60087,2470.693,2023-7-14T08:28:54Z
2023-07-14T06:29:40Z,42.805,6.029,13.3031,4.60087,2470.73,2023-7-14T08:31:57Z
2023-07-14T06:32:44Z,42.805,6.029,13.3026,4.60088,2470.67,2023-7-14T08:35:01Z
2023-07-14T06:35:47Z,42.805,6.029,13.3027,4.60088,2470.717,2023-7-14T08:38:04Z
2023-07-14T06:38:50Z,42.805,6.029,13.3026,4.60090,2470.693,2023-7-14T08:41:07Z
2023-07-14T06:41:53Z,42.805,6.029,13.3029,4.60087,2470.717,2023-7-14T08:44:10Z
2023-07-14T06:44:56Z,42.805,6.029,13.3027,4.60088,2470.707,2023-7-14T08:47:13Z
2023-07-14T06:47:59Z,42.805,6.029,13.3030,4.60090,2470.717,2023-7-14T08:50:16Z
2023-07-14T06:51:02Z,42.805,6.029,13.3025,4.60089,2470.717,2023-7-14T08:53:19Z
2023-07-14T06:54:06Z,42.805,6.029,13.3027,4.60097,2470.717,2023-7-14T08:56:22Z
2023-07-14T06:57:09Z,42.805,6.029,13.3032,4.60088,2470.717,2023-7-14T08:59:25Z
2023-07-14T07:00:12Z,42.805,6.029,13.3029,4.60089,2470.693,2023-7-14T09:02:28Z
2023-07-14T07:03:15Z,42.805,6.029,13.3030,4.60087,2470.707,2023-7-14T09:05:31Z
2023-07-14T07:06:18Z,42.805,6.029,13.3026,4.60087,2470.693,2023-7-14T09:08:34Z
2023-07-14T07:09:21Z,42.805,6.029,13.3024,4.60089,2470.693,2023-7-14T09:11:38Z
2023-07-14T07:12:24Z,42.805,6.029,13.3031,4.60088,2470.67,2023-7-14T09:14:41Z
2023-07-14T07:15:27Z,42.805,6.029,13.3030,4.60089,2470.67,2023-7-14T09:17:44Z
2023-07-14T07:18:30Z,42.805,6.029,13.3027,4.60089,2470.707,2023-7-14T09:20:47Z
2023-07-14T07:21:33Z,42.805,6.029,13.3025,4.60089,2470.707,2023-7-14T09:23:50Z
2023-07-14T07:24:36Z,42.805,6.029,13.3028,4.60091,2470.684,2023-7-14T09:26:53Z
2023-07-14T07:27:39Z,42.805,6.029,13.3028,4.60088,2470.67,2023-7-14T09:29:56Z
2023-07-14T07:30:43Z,42.805,6.029,13.3028,4.60087,2470.684,2023-7-14T09:32:59Z
2023-07-14T07:33:46Z,42.805,6.029,13.3033,4.60089,2470.67,2023-7-14T09:36:02Z
2023-07-14T07:36:49Z,42.805,6.029,13.3029,4.60088,2470.67,2023-7-14T09:39:05Z
2023-07-14T07:39:52Z,42.805,6.029,13.3031,4.60087,2470.693,2023-7-14T09:42:08Z
2023-07-14T07:42:55Z,42.805,6.029,13.3026,4.60087,2470.67,2023-7-14T09:45:11Z
2023-07-14T07:45:58Z,42.805,6.029,13.3029,4.60088,2470.67,2023-7-14T09:48:15Z
2023-07-14T07:49:01Z,42.805,6.029,13.3028,4.60088,2470.693,2023-7-14T09:51:18Z
2023-07-14T07:52:04Z,42.805,6.029,13.3033,4.60087,2470.707,2023-7-14T09:54:21Z
2023-07-14T07:55:07Z,42.805,6.029,13.3026,4.60088,2470.67,2023-7-14T09:57:24Z
2023-07-14T07:58:10Z,42.805,6.029,13.3030,4.60088,2470.67,2023-7-14T10:00:27Z
2023-07-14T08:01:13Z,42.805,6.029,13.3028,4.60087,2470.646,2023-7-14T10:03:30Z
2023-07-14T08:04:16Z,42.805,6.029,13.3030,4.60087,2470.693,2023-7-14T10:06:33Z
2023-07-14T08:07:20Z,42.805,6.029,13.3029,4.60088,2470.693,2023-7-14T10:09:36Z
2023-07-14T08:10:23Z,42.805,6.029,13.3031,4.60089,2470.67,2023-7-14T10:12:39Z
2023-07-14T08:13:26Z,42.805,6.029,13.3028,4.60089,2470.637,2023-7-14T10:15:42Z
2023-07-14T08:16:29Z,42.805,6.029,13.3030,4.60089,2470.646,2023-7-14T10:18:45Z
2023-07-14T08:19:32Z,42.805,6.029,13.3027,4.60095,2470.661,2023-7-14T10:21:48Z
2023-07-14T08:22:35Z,42.805,6.029,13.3029,4.60091,2470.67,2023-7-14T10:24:52Z
2023-07-14T08:25:38Z,42.805,6.029,13.3029,4.60089,2470.661,2023-7-14T10:27:55Z
2023-07-14T08:28:41Z,42.805,6.029,13.3029,4.60088,2470.633,2023-7-14T10:30:58Z
2023-07-14T08:31:43Z,42.805,6.029,13.3029,4.60087,2470.661,2023-7-14T10:33:59Z
2023-07-14T08:34:46Z,42.805,6.029,13.3033,4.60088,2470.661,2023-7-14T10:37:02Z
2023-07-14T08:37:49Z,42.805,6.029,13.3028,4.60092,2470.646,2023-7-14T10:40:05Z
2023-07-14T08:40:52Z,42.805,6.029,13.3030,4.60089,2470.661,2023-7-14T10:43:08Z
2023-07-14T08:43:55Z,42.805,6.029,13.3027,4.60089,2470.661,2023-7-14T10:46:12Z
2023-07-14T08:46:58Z,42.805,6.029,13.3029,4.60088,2470.624,2023-7-14T10:49:15Z
2023-07-14T08:50:01Z,42.805,6.029,13.3030,4.60088,2470.661,2023-7-14T10:52:18Z
2023-07-14T08:53:04Z,42.805,6.029,13.3029,4.60089,2470.624,2023-7-14T10:55:21Z
2023-07-14T08:56:07Z,42.805,6.029,13.3026,4.60092,2470.646,2023-7-14T10:58:24Z
2023-07-14T08:59:10Z,42.805,6.029,13.3029,4.60089,2470.637,2023-7-14T11:01:27Z
2023-07-14T09:02:14Z,42.805,6.029,13.3027,4.60090,2470.661,2023-7-14T11:04:30Z
2023-07-14T09:05:17Z,42.805,6.029,13.3030,4.60090,2470.646,2023-7-14T11:07:33Z
2023-07-14T09:08:20Z,42.805,6.029,13.3028,4.60088,2470.646,2023-7-14T11:10:36Z
2023-07-14T09:11:23Z,42.805,6.029,13.3030,4.60090,2470.637,2023-7-14T11:13:39Z
2023-07-14T09:14:26Z,42.805,6.029,13.3026,4.60089,2470.61,2023-7-14T11:16:42Z
2023-07-14T09:17:29Z,42.805,6.029,13.3026,4.60089,2470.624,2023-7-14T11:19:46Z
2023-07-14T09:20:32Z,42.805,6.029,13.3029,4.60089,2470.614,2023-7-14T11:22:49Z
2023-07-14T09:23:35Z,42.805,6.029,13.3033,4.60089,2470.6,2023-7-14T11:25:52Z
2023-07-14T09:26:38Z,42.805,6.029,13.3030,4.60088,2470.6,2023-7-14T11:28:55Z
2023-07-14T09:29:41Z,42.805,6.029,13.3029,4.60089,2470.624,2023-7-14T11:31:58Z
2023-07-14T09:32:44Z,42.805,6.029,13.3029,4.60090,2470.624,2023-7-14T11:35:01Z
2023-07-14T09:35:48Z,42.805,6.029,13.3029,4.60088,2470.624,2023-7-14T11:38:04Z
2023-07-14T09:38:51Z,42.805,6.029,13.3028,4.60089,2470.624,2023-7-14T11:41:07Z
2023-07-14T09:41:54Z,42.805,6.029,13.3024,4.60088,2470.624,2023-7-14T11:44:10Z
2023-07-14T09:44:57Z,42.805,6.029,13.3031,4.60089,2470.614,2023-7-14T11:47:13Z
2023-07-14T09:48:00Z,42.805,6.029,13.3027,4.60089,2470.624,2023-7-14T11:50:16Z
2023-07-14T09:51:03Z,42.805,6.029,13.3027,4.60093,2470.6,2023-7-14T11:53:20Z
2023-07-14T09:54:06Z,42.805,6.029,13.3031,4.60089,2470.6,2023-7-14T11:56:23Z
2023-07-14T09:57:09Z,42.805,6.029,13.3025,4.60088,2470.6,2023-7-14T11:59:26Z
2023-07-14T10:00:12Z,42.805,6.029,13.3029,4.60090,2470.591,2023-7-14T12:02:29Z
2023-07-14T10:03:15Z,42.805,6.029,13.3029,4.60089,2470.577,2023-7-14T12:05:32Z
2023-07-14T10:06:18Z,42.805,6.029,13.3026,4.60090,2470.614,2023-7-14T12:08:35Z
2023-07-14T10:09:22Z,42.805,6.029,13.3028,4.60096,2470.577,2023-7-14T12:11:38Z
2023-07-14T10:12:25Z,42.805,6.029,13.3031,4.60087,2470.614,2023-7-14T12:14:41Z
2023-07-14T10:15:28Z,42.805,6.029,13.3031,4.60089,2470.591,2023-7-14T12:17:44Z
2023-07-14T10:18:31Z,42.805,6.029,13.3029,4.60089,2470.591,2023-7-14T12:20:47Z
2023-07-14T10:21:34Z,42.805,6.029,13.3026,4.60088,2470.577,2023-7-14T12:23:50Z
2023-07-14T10:24:37Z,42.805,6.029,13.3027,4.60088,2470.637,2023-7-14T12:26:54Z
2023-07-14T10:27:40Z,42.805,6.029,13.3026,4.60088,2470.6,2023-7-14T12:29:57Z
2023-07-14T10:30:41Z,42.805,6.029,13.3030,4.60087,2470.624,2023-7-14T12:32:58Z
2023-07-14T10:33:44Z,42.805,6.029,13.3031,4.60089,2470.591,2023-7-14T12:36:01Z
2023-07-14T10:36:47Z,42.805,6.029,13.3027,4.60088,2470.6,2023-7-14T12:39:04Z
2023-07-14T10:39:51Z,42.805,6.029,13.3026,4.60088,2470.577,2023-7-14T12:42:07Z
2023-07-14T10:42:54Z,42.805,6.029,13.3027,4.60089,2470.614,2023-7-14T12:45:10Z
2023-07-14T10:45:57Z,42.805,6.029,13.3030,4.60092,2470.614,2023-7-14T12:48:13Z
2023-07-14T10:49:00Z,42.805,6.029,13.3034,4.60091,2470.6,2023-7-14T12:51:16Z
2023-07-14T10:52:03Z,42.805,6.029,13.3029,4.60092,2470.637,2023-7-14T12:54:19Z
2023-07-14T10:55:06Z,42.805,6.029,13.3028,4.60102,2470.6,2023-7-14T12:57:23Z
2023-07-14T10:58:09Z,42.805,6.029,13.3031,4.60092,2470.6,2023-7-14T13:00:26Z
2023-07-14T11:01:12Z,42.805,6.029,13.3026,4.60088,2470.591,2023-7-14T13:03:29Z
2023-07-14T11:04:15Z,42.805,6.029,13.3028,4.60088,2470.577,2023-7-14T13:06:32Z
2023-07-14T11:07:18Z,42.805,6.029,13.3029,4.60089,2470.6,2023-7-14T13:09:35Z
2023-07-14T11:10:21Z,42.805,6.029,13.3028,4.60088,2470.6,2023-7-14T13:12:38Z
2023-07-14T11:13:24Z,42.805,6.029,13.3027,4.60089,2470.577,2023-7-14T13:15:41Z
2023-07-14T11:16:28Z,42.805,6.029,13.3026,4.60088,2470.614,2023-7-14T13:18:44Z
2023-07-14T11:19:31Z,42.805,6.029,13.3029,4.60087,2470.591,2023-7-14T13:21:47Z
2023-07-14T11:22:34Z,42.805,6.029,13.3029,4.60088,2470.6,2023-7-14T13:24:50Z
2023-07-14T11:25:37Z,42.805,6.029,13.3029,4.60087,2470.6,2023-7-14T13:27:53Z
2023-07-14T11:28:40Z,42.805,6.029,13.3026,4.60089,2470.577,2023-7-14T13:30:57Z
2023-07-14T11:31:43Z,42.805,6.029,13.3024,4.60089,2470.591,2023-7-14T13:34:00Z
2023-07-14T11:34:46Z,42.805,6.029,13.3031,4.60090,2470.6,2023-7-14T13:37:03Z
2023-07-14T11:37:49Z,42.805,6.029,13.3031,4.60089,2470.6,2023-7-14T13:40:06Z
2023-07-14T11:40:52Z,42.805,6.029,13.3029,4.60089,2470.624,2023-7-14T13:43:09Z
2023-07-14T11:43:55Z,42.805,6.029,13.3029,4.60091,2470.614,2023-7-14T13:46:12Z
2023-07-14T11:46:58Z,42.805,6.029,13.3031,4.60088,2470.614,2023-7-14T13:49:15Z
2023-07-14T11:50:02Z,42.805,6.029,13.3029,4.60098,2470.637,2023-7-14T13:52:18Z
2023-07-14T11:53:05Z,42.805,6.029,13.3029,4.60089,2470.6,2023-7-14T13:55:21Z
2023-07-14T11:56:08Z,42.805,6.029,13.3028,4.60092,2470.614,2023-7-14T13:58:24Z
2023-07-14T11:59:11Z,42.805,6.029,13.3026,4.60089,2470.6,2023-7-14T14:01:27Z
2023-07-14T12:02:14Z,42.805,6.029,13.3026,4.60088,2470.563,2023-7-14T14:04:30Z
2023-07-14T12:05:17Z,42.805,6.029,13.3030,4.60089,2470.624,2023-7-14T14:07:34Z
2023-07-14T12:08:20Z,42.805,6.029,13.3030,4.60090,2470.614,2023-7-14T14:10:37Z
2023-07-14T12:11:23Z,42.805,6.029,13.3028,4.60089,2470.624,2023-7-14T14:13:40Z
2023-07-14T12:14:26Z,42.805,6.029,13.3028,4.60088,2470.624,2023-7-14T14:16:43Z
2023-07-14T12:17:29Z,42.805,6.029,13.3029,4.60088,2470.577,2023-7-14T14:19:46Z
2023-07-14T12:20:32Z,42.805,6.029,13.3029,4.60087,2470.6,2023-7-14T14:22:49Z
2023-07-14T12:23:35Z,42.805,6.029,13.3028,4.60089,2470.577,2023-7-14T14:25:52Z
2023-07-14T12:26:39Z,42.805,6.029,13.3029,4.60096,2470.586,2023-7-14T14:28:55Z
2023-07-14T12:29:42Z,42.805,6.029,13.3029,4.60088,2470.6,2023-7-14T14:31:58Z
2023-07-14T12:32:45Z,42.805,6.029,13.3031,4.60088,2470.624,2023-7-14T14:35:01Z
2023-07-14T12:35:48Z,42.805,6.029,13.3026,4.60087,2470.624,2023-7-14T14:38:04Z
2023-07-14T12:38:51Z,42.805,6.029,13.3032,4.60087,2470.577,2023-7-14T14:41:07Z
2023-07-14T12:41:54Z,42.805,6.029,13.3029,4.60088,2470.646,2023-7-14T14:44:11Z
2023-07-14T12:44:57Z,42.805,6.029,13.3026,4.60088,2470.6,2023-7-14T14:47:14Z
2023-07-14T12:48:00Z,42.805,6.029,13.3033,4.60089,2470.563,2023-7-14T14:50:17Z
2023-07-14T12:51:03Z,42.805,6.029,13.3029,4.60087,2470.637,2023-7-14T14:53:20Z
2023-07-14T12:54:06Z,42.805,6.029,13.3034,4.60089,2470.577,2023-7-14T14:56:23Z
2023-07-14T12:57:09Z,42.805,6.029,13.3027,4.60094,2470.614,2023-7-14T14:59:26Z
2023-07-14T13:00:12Z,42.805,6.029,13.3026,4.60088,2470.661,2023-7-14T15:02:29Z
2023-07-14T13:03:16Z,42.805,6.029,13.3029,4.60089,2470.624,2023-7-14T15:05:32Z
2023-07-14T13:06:19Z,42.805,6.029,13.3028,4.60088,2470.614,2023-7-14T15:08:35Z
2023-07-14T13:09:22Z,42.805,6.029,13.3031,4.60087,2470.646,2023-7-14T15:11:38Z
2023-07-14T13:12:25Z,42.805,6.029,13.3031,4.60088,2470.637,2023-7-14T15:14:41Z
2023-07-14T13:15:28Z,42.805,6.029,13.3031,4.60089,2470.646,2023-7-14T15:17:44Z
2023-07-14T13:18:31Z,42.805,6.029,13.3027,4.60087,2470.646,2023-7-14T15:20:48Z
2023-07-14T13:21:34Z,42.805,6.029,13.3029,4.60089,2470.661,2023-7-14T15:23:51Z
2023-07-14T13:24:37Z,42.805,6.029,13.3028,4.60087,2470.624,2023-7-14T15:26:54Z
2023-07-14T13:27:40Z,42.805,6.029,13.3030,4.60087,2470.646,2023-7-14T15:29:57Z
2023-07-14T13:30:43Z,42.805,6.029,13.3026,4.60087,2470.624,2023-7-14T15:33:00Z
2023-07-14T13:33:46Z,42.805,6.029,13.3029,4.60088,2470.646,2023-7-14T15:36:03Z
2023-07-14T13:36:49Z,42.805,6.029,13.3031,4.60090,2470.646,2023-7-14T15:39:06Z
2023-07-14T13:39:53Z,42.805,6.029,13.3030,4.60088,2470.67,2023-7-14T15:42:09Z
2023-07-14T13:42:56Z,42.805,6.029,13.3030,4.60087,2470.624,2023-7-14T15:45:12Z
2023-07-14T13:45:59Z,42.805,6.029,13.3031,4.60088,2470.624,2023-7-14T15:48:15Z
2023-07-14T13:49:02Z,42.805,6.029,13.3031,4.60087,2470.624,2023-7-14T15:51:18Z
2023-07-14T13:52:05Z,42.805,6.029,13.3029,4.60092,2470.646,2023-7-14T15:54:22Z
2023-07-14T13:55:08Z,42.805,6.029,13.3027,4.60088,2470.624,2023-7-14T15:57:25Z
2023-07-14T13:58:11Z,42.805,6.029,13.3028,4.60087,2470.661,2023-7-14T16:00:28Z
2023-07-14T14:01:14Z,42.805,6.029,13.3029,4.60087,2470.684,2023-7-14T16:03:31Z
2023-07-14T14:04:17Z,42.805,6.029,13.3028,4.60089,2470.661,2023-7-14T16:06:34Z
2023-07-14T14:07:20Z,42.805,6.029,13.3024,4.60089,2470.684,2023-7-14T16:09:37Z
2023-07-14T14:10:23Z,42.805,6.029,13.3025,4.60088,2470.684,2023-7-14T16:12:40Z
2023-07-14T14:13:27Z,42.805,6.029,13.3029,4.60088,2470.707,2023-7-14T16:15:43Z
2023-07-14T14:16:30Z,42.805,6.029,13.3034,4.60088,2470.684,2023-7-14T16:18:46Z
2023-07-14T14:19:33Z,42.805,6.029,13.3030,4.60089,2470.67,2023-7-14T16:21:49Z
2023-07-14T14:22:36Z,42.805,6.029,13.3031,4.60088,2470.684,2023-7-14T16:24:52Z
2023-07-14T14:25:39Z,42.805,6.029,13.3027,4.60088,2470.684,2023-7-14T16:27:55Z
2023-07-14T14:28:42Z,42.805,6.029,13.3029,4.60088,2470.661,2023-7-14T16:30:59Z
2023-07-14T14:31:44Z,42.805,6.029,13.3030,4.60088,2470.67,2023-7-14T16:34:00Z
2023-07-14T14:34:47Z,42.805,6.029,13.3029,4.60089,2470.67,2023-7-14T16:37:04Z
2023-07-14T14:37:50Z,42.805,6.029,13.3031,4.60087,2470.693,2023-7-14T16:40:07Z
2023-07-14T14:40:53Z,42.805,6.029,13.3030,4.60091,2470.67,2023-7-14T16:43:10Z
2023-07-14T14:43:56Z,42.805,6.029,13.3030,4.60088,2470.693,2023-7-14T16:46:13Z
2023-07-14T14:46:59Z,42.805,6.029,13.3033,4.60088,2470.67,2023-7-14T16:49:16Z
2023-07-14T14:50:02Z,42.805,6.029,13.3024,4.60088,2470.693,2023-7-14T16:52:19Z
2023-07-14T14:53:05Z,42.805,6.029,13.3026,4.60087,2470.73,2023-7-14T16:55:22Z
2023-07-14T14:56:09Z,42.805,6.029,13.3026,4.60087,2470.684,2023-7-14T16:58:25Z
2023-07-14T14:59:12Z,42.805,6.029,13.3032,4.60088,2470.717,2023-7-14T17:01:28Z
2023-07-14T15:02:15Z,42.805,6.029,13.3028,4.60089,2470.67,2023-7-14T17:04:31Z
2023-07-14T15:05:18Z,42.805,6.029,13.3028,4.60087,2470.693,2023-7-14T17:07:34Z
2023-07-14T15:08:21Z,42.805,6.029,13.3029,4.60088,2470.693,2023-7-14T17:10:38Z
2023-07-14T15:11:24Z,42.805,6.029,13.3029,4.60089,2470.67,2023-7-14T17:13:41Z
2023-07-14T15:14:27Z,42.805,6.029,13.3026,4.60090,2470.73,2023-7-14T17:16:44Z